| time (UTC) | temp C | wind direction | speed KPH | gust KPH | rain 1hr cm | rain 24hr cm | rain mn cm | humidity % | barometer mb |
| 20260831145058 | 10 | 0 | 0.0 | 1.6 | 0.00 | 0.00 | 0.00 | 74 | 1022.9 |
| 20260831144605 | 8 | 0 | 0.0 | 1.6 | 0.00 | 0.00 | 0.00 | 76 | 1022.9 |
| 20260831144058 | 8 | 0 | 0.0 | 0.0 | 0.00 | 0.00 | 0.00 | 74 | 1023.0 |
| 20260831143558 | 7 | 0 | 0.0 | 1.6 | 0.00 | 0.00 | 0.00 | 76 | 1022.8 |
| 20260831143103 | 6 | 0 | 0.0 | 1.6 | 0.00 | 0.00 | 0.00 | 80 | 1022.8 |
| 20260831142558 | 5 | 0 | 0.0 | 1.6 | 0.00 | 0.00 | 0.00 | 82 | 1022.8 |
| 20260831142059 | 5 | 0 | 0.0 | 0.0 | 0.00 | 0.00 | 0.00 | 81 | 1022.8 |
| 20260831141606 | 5 | 0 | 0.0 | 0.0 | 0.00 | 0.00 | 0.00 | 81 | 1022.9 |
| 20260831141057 | 5 | 0 | 0.0 | 0.0 | 0.00 | 0.00 | 0.00 | 80 | 1022.9 |
| 20260831140558 | 5 | 0 | 0.0 | 1.6 | 0.00 | 0.00 | 0.00 | 80 | 1022.8 |
| 20260831140106 | 5 | 0 | 0.0 | 1.6 | 0.00 | 0.00 | 0.00 | 80 | 1022.7 |
| 20260831135559 | 5 | 0 | 0.0 | 1.6 | 0.00 | 0.00 | 0.00 | 80 | 1022.6 |
| 20260831135058 | 5 | 187 | 0.0 | 1.6 | 0.00 | 0.00 | 0.00 | 79 | 1022.6 |
| 20260831134614 | 5 | 0 | 0.0 | 1.6 | 0.00 | 0.00 | 0.00 | 79 | 1022.6 |
| 20260831134057 | 5 | 0 | 0.0 | 1.6 | 0.00 | 0.00 | 0.00 | 78 | 1022.6 |
| 20260831133557 | 5 | 0 | 0.0 | 0.0 | 0.00 | 0.00 | 0.00 | 79 | 1022.6 |
| 20260831133107 | 5 | 0 | 0.0 | 0.0 | 0.00 | 0.00 | 0.00 | 80 | 1022.6 |
| 20260831132557 | 5 | 0 | 0.0 | 1.6 | 0.00 | 0.00 | 0.00 | 80 | 1022.5 |
| 20260831132058 | 5 | 188 | 0.0 | 1.6 | 0.00 | 0.00 | 0.00 | 79 | 1022.5 |
| 20260831131601 | 5 | 174 | 0.0 | 1.6 | 0.00 | 0.00 | 0.00 | 79 | 1022.5 |
| 20260831131058 | 5 | 0 | 0.0 | 0.0 | 0.00 | 0.00 | 0.00 | 78 | 1022.6 |
| 20260831130558 | 5 | 0 | 0.0 | 0.0 | 0.00 | 0.00 | 0.00 | 77 | 1022.4 |
| 20260831130109 | 6 | 0 | 0.0 | 0.0 | 0.00 | 0.00 | 0.00 | 77 | 1022.4 |
| 20260831125558 | 6 | 0 | 0.0 | 0.0 | 0.00 | 0.00 | 0.00 | 77 | 1022.4 |
| 20260831125058 | 6 | 0 | 0.0 | 0.0 | 0.00 | 0.00 | 0.00 | 80 | 1022.4 |
| 20260831124608 | 5 | 0 | 0.0 | 0.0 | 0.00 | 0.00 | 0.00 | 78 | 1022.4 |
| 20260831124057 | 6 | 0 | 0.0 | 0.0 | 0.00 | 0.00 | 0.00 | 76 | 1022.5 |
| 20260831123558 | 6 | 0 | 0.0 | 0.0 | 0.00 | 0.00 | 0.00 | 75 | 1022.4 |
| 20260831123105 | 6 | 0 | 0.0 | 0.0 | 0.00 | 0.00 | 0.00 | 76 | 1022.4 |
| 20260831122601 | 6 | 0 | 0.0 | 1.6 | 0.00 | 0.00 | 0.00 | 76 | 1022.4 |
| 20260831122058 | 6 | 0 | 0.0 | 3.2 | 0.00 | 0.00 | 0.00 | 77 | 1022.4 |
| 20260831121632 | 6 | 0 | 0.0 | 3.2 | 0.00 | 0.00 | 0.00 | 76 | 1022.4 |
| 20260831121058 | 6 | 0 | 0.0 | 1.6 | 0.00 | 0.00 | 0.00 | 75 | 1022.5 |
| 20260831120601 | 6 | 0 | 0.0 | 1.6 | 0.00 | 0.00 | 0.00 | 76 | 1022.5 |
| 20260831120111 | 6 | 0 | 0.0 | 3.2 | 0.00 | 0.00 | 0.00 | 77 | 1022.6 |
| 20260831115557 | 6 | 0 | 0.0 | 3.2 | 0.00 | 0.00 | 0.00 | 76 | 1022.6 |
| 20260831115101 | 6 | 0 | 0.0 | 3.2 | 0.00 | 0.00 | 0.00 | 74 | 1022.6 |
| 20260831114605 | 6 | 0 | 0.0 | 1.6 | 0.00 | 0.00 | 0.00 | 75 | 1022.8 |
| 20260831114057 | 6 | 0 | 0.0 | 1.6 | 0.00 | 0.00 | 0.00 | 75 | 1022.6 |
| 20260831113557 | 6 | 0 | 0.0 | 1.6 | 0.00 | 0.00 | 0.00 | 75 | 1022.6 |
| 20260831113109 | 6 | 174 | 0.0 | 1.6 | 0.00 | 0.00 | 0.00 | 75 | 1022.7 |
| 20260831112558 | 6 | 0 | 0.0 | 1.6 | 0.00 | 0.00 | 0.00 | 76 | 1022.6 |
| 20260831112058 | 6 | 0 | 0.0 | 1.6 | 0.00 | 0.00 | 0.00 | 75 | 1022.7 |
| 20260831111604 | 6 | 0 | 0.0 | 0.0 | 0.00 | 0.00 | 0.00 | 76 | 1022.7 |
| 20260831111058 | 6 | 0 | 0.0 | 0.0 | 0.00 | 0.00 | 0.00 | 75 | 1022.7 |
| 20260831110558 | 7 | 0 | 0.0 | 0.0 | 0.00 | 0.00 | 0.00 | 77 | 1022.7 |
| 20260831110107 | 7 | 0 | 0.0 | 0.0 | 0.00 | 0.00 | 0.00 | 77 | 1022.6 |
| 20260831105622 | 7 | 0 | 0.0 | 0.0 | 0.00 | 0.00 | 0.00 | 77 | 1022.7 |
| 20260831105058 | 7 | 0 | 0.0 | 0.0 | 0.00 | 0.00 | 0.00 | 76 | 1022.8 |
| 20260831104605 | 7 | 0 | 0.0 | 0.0 | 0.00 | 0.00 | 0.00 | 77 | 1022.8 |
| 20260831104058 | 7 | 0 | 0.0 | 0.0 | 0.00 | 0.00 | 0.00 | 75 | 1022.8 |
| 20260831103559 | 7 | 0 | 0.0 | 0.0 | 0.00 | 0.00 | 0.00 | 74 | 1022.7 |
| 20260831103111 | 7 | 0 | 0.0 | 3.2 | 0.00 | 0.00 | 0.00 | 74 | 1022.8 |
| 20260831102557 | 7 | 174 | 0.0 | 3.2 | 0.00 | 0.00 | 0.00 | 73 | 1022.9 |
| 20260831102058 | 8 | 169 | 0.0 | 0.0 | 0.00 | 0.00 | 0.00 | 72 | 1022.9 |
| 20260831101604 | 8 | 0 | 0.0 | 0.0 | 0.00 | 0.00 | 0.00 | 73 | 1023.0 |
| 20260831101058 | 8 | 0 | 0.0 | 1.6 | 0.00 | 0.00 | 0.00 | 71 | 1022.9 |
| 20260831100556 | 8 | 0 | 0.0 | 3.2 | 0.00 | 0.00 | 0.00 | 69 | 1023.0 |
| 20260831100110 | 8 | 0 | 0.0 | 3.2 | 0.00 | 0.00 | 0.00 | 68 | 1022.9 |
| 20260831095557 | 8 | 0 | 0.0 | 3.2 | 0.00 | 0.00 | 0.00 | 67 | 1022.9 |
| 20260831095057 | 8 | 172 | 0.0 | 1.6 | 0.00 | 0.00 | 0.00 | 67 | 1022.9 |
| 20260831094608 | 8 | 0 | 0.0 | 1.6 | 0.00 | 0.00 | 0.00 | 66 | 1022.9 |
| 20260831094058 | 8 | 167 | 0.0 | 1.6 | 0.00 | 0.00 | 0.00 | 67 | 1022.9 |
| 20260831093557 | 8 | 0 | 0.0 | 1.6 | 0.00 | 0.00 | 0.00 | 66 | 1023.0 |
| 20260831093154 | 8 | 0 | 0.0 | 0.0 | 0.00 | 0.00 | 0.00 | 68 | 1023.0 |
| 20260831092558 | 8 | 0 | 0.0 | 0.0 | 0.00 | 0.00 | 0.00 | 67 | 1022.9 |
| 20260831092058 | 8 | 0 | 0.0 | 1.6 | 0.00 | 0.00 | 0.00 | 65 | 1022.9 |
| 20260831091606 | 8 | 0 | 0.0 | 1.6 | 0.00 | 0.00 | 0.00 | 63 | 1022.9 |
| 20260831091058 | 8 | 0 | 0.0 | 1.6 | 0.00 | 0.00 | 0.00 | 62 | 1022.9 |
| 20260831090558 | 9 | 0 | 0.0 | 0.0 | 0.00 | 0.00 | 0.00 | 64 | 1022.8 |
| 20260831090108 | 9 | 0 | 0.0 | 1.6 | 0.00 | 0.00 | 0.00 | 63 | 1022.8 |
| 20260831085558 | 9 | 0 | 0.0 | 3.2 | 0.00 | 0.00 | 0.00 | 63 | 1022.9 |
| 20260831085058 | 9 | 172 | 0.0 | 3.2 | 0.00 | 0.00 | 0.00 | 62 | 1023.1 |
| 20260831084652 | 9 | 170 | 0.0 | 1.6 | 0.00 | 0.00 | 0.00 | 62 | 1023.1 |
| 20260831084057 | 9 | 207 | 0.0 | 0.0 | 0.00 | 0.00 | 0.00 | 62 | 1023.2 |
| 20260831083557 | 10 | 0 | 0.0 | 0.0 | 0.00 | 0.00 | 0.00 | 61 | 1023.1 |
| 20260831083109 | 10 | 0 | 0.0 | 0.0 | 0.00 | 0.00 | 0.00 | 61 | 1023.1 |
| 20260831082601 | 10 | 0 | 0.0 | 0.0 | 0.00 | 0.00 | 0.00 | 61 | 1023.3 |
| 20260831082057 | 10 | 0 | 0.0 | 0.0 | 0.00 | 0.00 | 0.00 | 60 | 1023.2 |
| 20260831081610 | 10 | 0 | 0.0 | 4.8 | 0.00 | 0.00 | 0.00 | 60 | 1023.2 |
| 20260831081058 | 10 | 0 | 0.0 | 4.8 | 0.00 | 0.00 | 0.00 | 61 | 1023.4 |
| 20260831080559 | 10 | 255 | 0.0 | 4.8 | 0.00 | 0.00 | 0.00 | 60 | 1023.5 |
| 20260831080125 | 10 | 0 | 0.0 | 0.0 | 0.00 | 0.00 | 0.00 | 59 | 1023.3 |
| 20260831075558 | 10 | 0 | 0.0 | 4.8 | 0.00 | 0.00 | 0.00 | 58 | 1023.2 |
| 20260831075057 | 10 | 0 | 0.0 | 4.8 | 0.00 | 0.00 | 0.00 | 57 | 1023.3 |
| 20260831074605 | 10 | 143 | 0.0 | 4.8 | 0.00 | 0.00 | 0.00 | 56 | 1023.3 |
| 20260831074057 | 10 | 0 | 1.6 | 4.8 | 0.00 | 0.00 | 0.00 | 56 | 1023.5 |
| 20260831073557 | 10 | 176 | 0.0 | 3.2 | 0.00 | 0.00 | 0.00 | 58 | 1023.5 |
| 20260831073108 | 10 | 168 | 0.0 | 1.6 | 0.00 | 0.00 | 0.00 | 56 | 1023.5 |
| 20260831072600 | 10 | 0 | 0.0 | 1.6 | 0.00 | 0.00 | 0.00 | 58 | 1023.5 |
| 20260831072058 | 10 | 0 | 0.0 | 1.6 | 0.00 | 0.00 | 0.00 | 57 | 1023.5 |
| 20260831071612 | 10 | 0 | 0.0 | 1.6 | 0.00 | 0.00 | 0.00 | 58 | 1023.4 |
| 20260831071057 | 10 | 0 | 0.0 | 1.6 | 0.00 | 0.00 | 0.00 | 57 | 1023.5 |
| 20260831070557 | 10 | 0 | 0.0 | 1.6 | 0.00 | 0.00 | 0.00 | 58 | 1023.4 |
| 20260831070118 | 10 | 0 | 0.0 | 0.0 | 0.00 | 0.00 | 0.00 | 57 | 1023.4 |
| 20260831065557 | 10 | 0 | 0.0 | 3.2 | 0.00 | 0.00 | 0.00 | 57 | 1023.4 |
| 20260831065058 | 10 | 0 | 0.0 | 4.8 | 0.00 | 0.00 | 0.00 | 58 | 1023.5 |
| 20260831064606 | 10 | 170 | 1.6 | 4.8 | 0.00 | 0.00 | 0.00 | 57 | 1023.5 |
| 20260831064059 | 10 | 0 | 1.6 | 4.8 | 0.00 | 0.00 | 0.00 | 53 | 1023.4 |
| 20260831063558 | 11 | 257 | 1.6 | 4.8 | 0.00 | 0.00 | 0.00 | 54 | 1023.5 |
| 20260831063114 | 11 | 172 | 1.6 | 3.2 | 0.00 | 0.00 | 0.00 | 55 | 1023.5 |
| 20260831062559 | 11 | 167 | 0.0 | 3.2 | 0.00 | 0.00 | 0.00 | 53 | 1023.5 |
| 20260831062058 | 11 | 0 | 0.0 | 1.6 | 0.00 | 0.00 | 0.00 | 53 | 1023.4 |
| 20260831061605 | 11 | 0 | 0.0 | 3.2 | 0.00 | 0.00 | 0.00 | 52 | 1023.5 |
| 20260831061058 | 11 | 226 | 1.6 | 3.2 | 0.00 | 0.00 | 0.00 | 49 | 1023.2 |
| 20260831060557 | 11 | 164 | 0.0 | 3.2 | 0.00 | 0.00 | 0.00 | 48 | 1023.3 |
| 20260831060127 | 12 | 167 | 0.0 | 1.6 | 0.00 | 0.00 | 0.00 | 48 | 1023.1 |
| 20260831055602 | 12 | 0 | 0.0 | 1.6 | 0.00 | 0.00 | 0.00 | 46 | 1023.1 |
| 20260831055057 | 12 | 0 | 0.0 | 3.2 | 0.00 | 0.00 | 0.00 | 46 | 1022.9 |
| 20260831054608 | 12 | 0 | 0.0 | 3.2 | 0.00 | 0.00 | 0.00 | 46 | 1023.1 |
| 20260831054058 | 12 | 0 | 0.0 | 3.2 | 0.00 | 0.00 | 0.00 | 47 | 1023.0 |
| 20260831053557 | 12 | 0 | 0.0 | 0.0 | 0.00 | 0.00 | 0.00 | 45 | 1023.0 |
| 20260831053107 | 12 | 0 | 0.0 | 0.0 | 0.00 | 0.00 | 0.00 | 45 | 1023.0 |
| 20260831052558 | 12 | 0 | 0.0 | 1.6 | 0.00 | 0.00 | 0.00 | 46 | 1022.9 |
| 20260831052101 | 13 | 0 | 0.0 | 1.6 | 0.00 | 0.00 | 0.00 | 44 | 1023.0 |
| 20260831051604 | 13 | 0 | 0.0 | 1.6 | 0.00 | 0.00 | 0.00 | 43 | 1023.0 |
| 20260831051057 | 13 | 0 | 0.0 | 6.4 | 0.00 | 0.00 | 0.00 | 44 | 1023.1 |
| 20260831050557 | 13 | 176 | 0.0 | 6.4 | 0.00 | 0.00 | 0.00 | 44 | 1023.1 |
| 20260831050118 | 13 | 217 | 3.2 | 6.4 | 0.00 | 0.00 | 0.00 | 43 | 1023.2 |
| 20260831045558 | 13 | 231 | 0.0 | 3.2 | 0.00 | 0.00 | 0.00 | 43 | 1023.1 |
| 20260831045058 | 13 | 187 | 0.0 | 1.6 | 0.00 | 0.00 | 0.00 | 42 | 1023.2 |
| 20260831044610 | 13 | 179 | 0.0 | 1.6 | 0.00 | 0.00 | 0.00 | 43 | 1023.2 |
| 20260831044058 | 13 | 0 | 0.0 | 1.6 | 0.00 | 0.00 | 0.00 | 43 | 1023.3 |
| 20260831043559 | 13 | 0 | 0.0 | 1.6 | 0.00 | 0.00 | 0.00 | 43 | 1023.3 |
| 20260831043105 | 13 | 0 | 0.0 | 3.2 | 0.00 | 0.00 | 0.00 | 43 | 1023.3 |
| 20260831042600 | 14 | 0 | 0.0 | 3.2 | 0.00 | 0.00 | 0.00 | 44 | 1023.2 |
| 20260831042058 | 15 | 0 | 0.0 | 3.2 | 0.00 | 0.00 | 0.00 | 43 | 1023.3 |
| 20260831041607 | 15 | 0 | 0.0 | 1.6 | 0.00 | 0.00 | 0.00 | 41 | 1023.2 |
| 20260831041059 | 15 | 0 | 0.0 | 1.6 | 0.00 | 0.00 | 0.00 | 40 | 1023.1 |
| 20260831040559 | 15 | 0 | 0.0 | 1.6 | 0.00 | 0.00 | 0.00 | 40 | 1023.1 |
| 20260831040107 | 16 | 0 | 0.0 | 3.2 | 0.00 | 0.00 | 0.00 | 39 | 1023.1 |
| 20260831035557 | 16 | 176 | 0.0 | 3.2 | 0.00 | 0.00 | 0.00 | 40 | 1023.1 |
| 20260831035059 | 16 | 169 | 0.0 | 1.6 | 0.00 | 0.00 | 0.00 | 39 | 1023.1 |
| 20260831034613 | 17 | 0 | 0.0 | 8.0 | 0.00 | 0.00 | 0.00 | 38 | 1023.1 |
| 20260831034057 | 17 | 0 | 0.0 | 8.0 | 0.00 | 0.00 | 0.00 | 37 | 1022.9 |
| 20260831033601 | 17 | 0 | 3.2 | 8.0 | 0.00 | 0.00 | 0.00 | 36 | 1022.9 |
| 20260831033106 | 17 | 0 | 3.2 | 8.0 | 0.00 | 0.00 | 0.00 | 36 | 1022.7 |
| 20260831032558 | 18 | 53 | 4.8 | 14.5 | 0.00 | 0.00 | 0.00 | 36 | 1022.6 |
| 20260831032058 | 18 | 316 | 4.8 | 14.5 | 0.00 | 0.00 | 0.00 | 36 | 1022.5 |
| 20260831031607 | 18 | 56 | 3.2 | 11.3 | 0.00 | 0.00 | 0.00 | 37 | 1022.5 |
| 20260831031100 | 18 | 117 | 3.2 | 11.3 | 0.00 | 0.00 | 0.00 | 37 | 1022.4 |
| 20260831030600 | 18 | 68 | 6.4 | 12.9 | 0.00 | 0.00 | 0.00 | 37 | 1022.3 |
| 20260831030107 | 18 | 157 | 6.4 | 12.9 | 0.00 | 0.00 | 0.00 | 37 | 1022.2 |
| 20260831025558 | 18 | 160 | 3.2 | 9.7 | 0.00 | 0.00 | 0.00 | 37 | 1022.3 |
| 20260831025057 | 18 | 105 | 1.6 | 11.3 | 0.00 | 0.00 | 0.00 | 38 | 1021.9 |
| 20260831024605 | 18 | 20 | 4.8 | 11.3 | 0.00 | 0.00 | 0.00 | 37 | 1022.0 |
| 20260831024102 | 18 | 58 | 0.0 | 12.9 | 0.00 | 0.00 | 0.00 | 40 | 1021.8 |
| 20260831023557 | 18 | 0 | 4.8 | 12.9 | 0.00 | 0.00 | 0.00 | 39 | 1021.7 |
| 20260831023106 | 18 | 118 | 0.0 | 3.2 | 0.00 | 0.00 | 0.00 | 40 | 1021.7 |
| 20260831022558 | 19 | 48 | 0.0 | 3.2 | 0.00 | 0.00 | 0.00 | 38 | 1021.6 |
| 20260831022058 | 19 | 0 | 0.0 | 1.6 | 0.00 | 0.00 | 0.00 | 36 | 1021.6 |
| 20260831021609 | 19 | 0 | 0.0 | 0.0 | 0.00 | 0.00 | 0.00 | 34 | 1021.5 |
| 20260831021058 | 19 | 0 | 0.0 | 1.6 | 0.00 | 0.00 | 0.00 | 34 | 1021.5 |
| 20260831020557 | 20 | 0 | 0.0 | 3.2 | 0.00 | 0.00 | 0.00 | 35 | 1021.5 |
| 20260831020108 | 20 | 158 | 0.0 | 3.2 | 0.00 | 0.00 | 0.00 | 35 | 1021.4 |
| 20260831015557 | 21 | 0 | 0.0 | 1.6 | 0.00 | 0.00 | 0.00 | 33 | 1021.4 |
| 20260831015057 | 21 | 0 | 0.0 | 1.6 | 0.00 | 0.00 | 0.00 | 32 | 1021.5 |
| 20260831014623 | 21 | 0 | 0.0 | 1.6 | 0.00 | 0.00 | 0.00 | 30 | 1021.5 |
| 20260831014058 | 22 | 0 | 0.0 | 1.6 | 0.00 | 0.00 | 0.00 | 29 | 1021.5 |
| 20260831013558 | 22 | 0 | 0.0 | 4.8 | 0.00 | 0.00 | 0.00 | 23 | 1021.5 |
| 20260831013109 | 22 | 0 | 0.0 | 8.0 | 0.00 | 0.00 | 0.00 | 23 | 1021.5 |
| 20260831012558 | 22 | 0 | 3.2 | 8.0 | 0.00 | 0.00 | 0.00 | 23 | 1021.5 |
| 20260831012058 | 22 | 159 | 1.6 | 8.0 | 0.00 | 0.00 | 0.00 | 23 | 1021.6 |
| 20260831011609 | 23 | 243 | 1.6 | 8.0 | 0.00 | 0.00 | 0.00 | 23 | 1021.5 |
| 20260831011057 | 23 | 144 | 1.6 | 8.0 | 0.00 | 0.00 | 0.00 | 23 | 1021.7 |
| 20260831010601 | 23 | 163 | 4.8 | 9.7 | 0.00 | 0.00 | 0.00 | 23 | 1021.7 |
| 20260831010109 | 23 | 0 | 4.8 | 11.3 | 0.00 | 0.00 | 0.00 | 23 | 1021.6 |
| 20260831005557 | 22 | 152 | 3.2 | 11.3 | 0.00 | 0.00 | 0.00 | 23 | 1021.7 |
| 20260831005058 | 22 | 161 | 4.8 | 11.3 | 0.00 | 0.00 | 0.00 | 23 | 1021.7 |
| 20260831004627 | 22 | 184 | 4.8 | 11.3 | 0.00 | 0.00 | 0.00 | 24 | 1021.7 |
| 20260831004056 | 22 | 162 | 6.4 | 9.7 | 0.00 | 0.00 | 0.00 | 24 | 1021.7 |
| 20260831003600 | 22 | 148 | 4.8 | 8.0 | 0.00 | 0.00 | 0.00 | 24 | 1021.8 |
| 20260831003112 | 22 | 148 | 4.8 | 8.0 | 0.00 | 0.00 | 0.00 | 24 | 1021.7 |
| 20260831002557 | 22 | 120 | 1.6 | 9.7 | 0.00 | 0.00 | 0.00 | 24 | 1021.6 |
| 20260831002100 | 22 | 135 | 3.2 | 11.3 | 0.00 | 0.00 | 0.00 | 24 | 1021.8 |
| 20260831001633 | 22 | 124 | 4.8 | 11.3 | 0.00 | 0.00 | 0.00 | 24 | 1021.8 |
| 20260831001058 | 22 | 117 | 4.8 | 11.3 | 0.00 | 0.00 | 0.00 | 24 | 1021.7 |
| 20260831000558 | 22 | 155 | 6.4 | 16.1 | 0.00 | 0.00 | 0.00 | 23 | 1021.8 |
| 20260831000115 | 22 | 89 | 8.0 | 16.1 | 0.00 | 0.00 | 0.00 | 23 | 1021.7 |
| 20260830235559 | 22 | 138 | 9.7 | 16.1 | 0.00 | 0.00 | 0.00 | 23 | 1021.8 |
| 20260830235100 | 23 | 164 | 4.8 | 11.3 | 0.00 | 0.00 | 0.00 | 23 | 1021.9 |
| 20260830234613 | 23 | 133 | 3.2 | 11.3 | 0.00 | 0.00 | 0.00 | 23 | 1021.7 |
| 20260830234058 | 23 | 174 | 3.2 | 11.3 | 0.00 | 0.00 | 0.00 | 22 | 1021.8 |
| 20260830233558 | 23 | 143 | 6.4 | 11.3 | 0.00 | 0.00 | 0.00 | 22 | 1021.8 |
| 20260830233132 | 23 | 120 | 4.8 | 11.3 | 0.00 | 0.00 | 0.00 | 23 | 1021.8 |
| 20260830232558 | 23 | 155 | 1.6 | 11.3 | 0.00 | 0.00 | 0.00 | 21 | 1022.0 |
| 20260830232058 | 23 | 87 | 6.4 | 11.3 | 0.00 | 0.00 | 0.00 | 21 | 1021.9 |
| 20260830231614 | 23 | 159 | 3.2 | 12.9 | 0.00 | 0.00 | 0.00 | 22 | 1022.0 |
| 20260830231101 | 23 | 125 | 4.8 | 14.5 | 0.00 | 0.00 | 0.00 | 21 | 1021.9 |
| 20260830230559 | 23 | 139 | 1.6 | 20.9 | 0.00 | 0.00 | 0.00 | 22 | 1022.0 |
| 20260830230133 | 24 | 136 | 8.0 | 20.9 | 0.00 | 0.00 | 0.00 | 21 | 1022.0 |
| 20260830225557 | 24 | 130 | 4.8 | 14.5 | 0.00 | 0.00 | 0.00 | 22 | 1022.2 |
| 20260830225058 | 24 | 282 | 1.6 | 17.7 | 0.00 | 0.00 | 0.00 | 20 | 1022.2 |
| 20260830224615 | 23 | 63 | 4.8 | 17.7 | 0.00 | 0.00 | 0.00 | 21 | 1022.2 |
| 20260830224058 | 24 | 54 | 4.8 | 17.7 | 0.00 | 0.00 | 0.00 | 21 | 1022.3 |
| 20260830223558 | 23 | 101 | 0.0 | 16.1 | 0.00 | 0.00 | 0.00 | 22 | 1022.4 |
| 20260830223112 | 23 | 68 | 9.7 | 16.1 | 0.00 | 0.00 | 0.00 | 19 | 1022.4 |
| 20260830222558 | 23 | 61 | 6.4 | 16.1 | 0.00 | 0.00 | 0.00 | 21 | 1022.4 |
| 20260830222059 | 23 | 41 | 0.0 | 20.9 | 0.00 | 0.00 | 0.00 | 21 | 1022.6 |
| 20260830221607 | 23 | 42 | 6.4 | 20.9 | 0.00 | 0.00 | 0.00 | 20 | 1022.5 |
| 20260830221058 | 23 | 85 | 8.0 | 20.9 | 0.00 | 0.00 | 0.00 | 21 | 1022.6 |
| 20260830220558 | 23 | 107 | 11.3 | 20.9 | 0.00 | 0.00 | 0.00 | 20 | 1022.6 |
| 20260830220107 | 23 | 162 | 6.4 | 16.1 | 0.00 | 0.00 | 0.00 | 20 | 1022.6 |
| 20260830215557 | 24 | 149 | 6.4 | 22.5 | 0.00 | 0.00 | 0.00 | 21 | 1022.7 |
| 20260830215057 | 24 | 113 | 3.2 | 22.5 | 0.00 | 0.00 | 0.00 | 21 | 1022.8 |
| 20260830214607 | 24 | 77 | 8.0 | 19.3 | 0.00 | 0.00 | 0.00 | 21 | 1022.8 |
| 20260830214059 | 24 | 63 | 8.0 | 20.9 | 0.00 | 0.00 | 0.00 | 21 | 1022.7 |
| 20260830213558 | 24 | 174 | 9.7 | 24.1 | 0.00 | 0.00 | 0.00 | 20 | 1022.8 |
| 20260830213103 | 23 | 203 | 9.7 | 24.1 | 0.00 | 0.00 | 0.00 | 20 | 1022.9 |
| 20260830212558 | 23 | 25 | 11.3 | 24.1 | 0.00 | 0.00 | 0.00 | 21 | 1022.9 |
| 20260830212058 | 23 | 55 | 9.7 | 19.3 | 0.00 | 0.00 | 0.00 | 22 | 1022.9 |
| 20260830211605 | 23 | 126 | 8.0 | 22.5 | 0.00 | 0.00 | 0.00 | 21 | 1022.9 |
| 20260830211057 | 23 | 94 | 9.7 | 22.5 | 0.00 | 0.00 | 0.00 | 21 | 1023.0 |
| 20260830210558 | 23 | 84 | 8.0 | 19.3 | 0.00 | 0.00 | 0.00 | 22 | 1022.9 |
| 20260830210109 | 23 | 134 | 8.0 | 19.3 | 0.00 | 0.00 | 0.00 | 22 | 1023.1 |
| 20260830205557 | 23 | 87 | 8.0 | 27.4 | 0.00 | 0.00 | 0.00 | 21 | 1023.1 |
| 20260830205058 | 23 | 120 | 9.7 | 27.4 | 0.00 | 0.00 | 0.00 | 21 | 1023.1 |
| 20260830204606 | 23 | 139 | 12.9 | 27.4 | 0.00 | 0.00 | 0.00 | 22 | 1023.1 |
| 20260830204058 | 23 | 70 | 6.4 | 19.3 | 0.00 | 0.00 | 0.00 | 22 | 1023.1 |
| 20260830203558 | 23 | 117 | 8.0 | 19.3 | 0.00 | 0.00 | 0.00 | 22 | 1023.3 |
| 20260830203110 | 23 | 139 | 9.7 | 17.7 | 0.00 | 0.00 | 0.00 | 23 | 1023.3 |
| 20260830202601 | 23 | 186 | 4.8 | 22.5 | 0.00 | 0.00 | 0.00 | 23 | 1023.2 |
| 20260830202058 | 23 | 108 | 6.4 | 22.5 | 0.00 | 0.00 | 0.00 | 23 | 1023.3 |
| 20260830201609 | 23 | 53 | 8.0 | 17.7 | 0.00 | 0.00 | 0.00 | 22 | 1023.5 |
| 20260830201057 | 23 | 77 | 6.4 | 25.7 | 0.00 | 0.00 | 0.00 | 23 | 1023.6 |
| 20260830200558 | 22 | 136 | 6.4 | 25.7 | 0.00 | 0.00 | 0.00 | 24 | 1023.5 |
| 20260830200106 | 22 | 129 | 8.0 | 24.1 | 0.00 | 0.00 | 0.00 | 22 | 1023.5 |
| 20260830195557 | 22 | 68 | 9.7 | 25.7 | 0.00 | 0.00 | 0.00 | 23 | 1023.7 |
| 20260830195058 | 22 | 189 | 9.7 | 25.7 | 0.00 | 0.00 | 0.00 | 24 | 1023.6 |
| 20260830194616 | 22 | 110 | 8.0 | 22.5 | 0.00 | 0.00 | 0.00 | 24 | 1023.8 |
| 20260830194058 | 22 | 169 | 9.7 | 27.4 | 0.00 | 0.00 | 0.00 | 23 | 1023.7 |
| 20260830193601 | 22 | 172 | 11.3 | 27.4 | 0.00 | 0.00 | 0.00 | 22 | 1023.7 |
| 20260830193109 | 23 | 167 | 6.4 | 22.5 | 0.00 | 0.00 | 0.00 | 22 | 1023.7 |
| 20260830192559 | 22 | 113 | 4.8 | 19.3 | 0.00 | 0.00 | 0.00 | 24 | 1023.7 |
| 20260830192058 | 22 | 77 | 8.0 | 19.3 | 0.00 | 0.00 | 0.00 | 24 | 1023.8 |
| 20260830191610 | 22 | 118 | 4.8 | 19.3 | 0.00 | 0.00 | 0.00 | 24 | 1023.8 |
| 20260830191057 | 22 | 110 | 8.0 | 27.4 | 0.00 | 0.00 | 0.00 | 22 | 1023.9 |
| 20260830190559 | 22 | 108 | 9.7 | 27.4 | 0.00 | 0.00 | 0.00 | 24 | 1023.9 |
| 20260830190106 | 22 | 75 | 8.0 | 27.4 | 0.00 | 0.00 | 0.00 | 22 | 1023.9 |
| 20260830185602 | 22 | 81 | 8.0 | 22.5 | 0.00 | 0.00 | 0.00 | 23 | 1024.0 |
| 20260830185057 | 22 | 125 | 6.4 | 27.4 | 0.00 | 0.00 | 0.00 | 23 | 1024.0 |
| 20260830184602 | 22 | 58 | 4.8 | 27.4 | 0.00 | 0.00 | 0.00 | 22 | 1024.1 |
| 20260830184057 | 23 | 52 | 8.0 | 27.4 | 0.00 | 0.00 | 0.00 | 22 | 1024.0 |
| 20260830183600 | 23 | 273 | 1.6 | 11.3 | 0.00 | 0.00 | 0.00 | 23 | 1024.1 |
| 20260830183110 | 23 | 6 | 1.6 | 9.7 | 0.00 | 0.00 | 0.00 | 24 | 1024.1 |
| 20260830182600 | 23 | 0 | 1.6 | 9.7 | 0.00 | 0.00 | 0.00 | 23 | 1024.2 |
| 20260830182058 | 23 | 274 | 3.2 | 9.7 | 0.00 | 0.00 | 0.00 | 23 | 1024.2 |
| 20260830181606 | 22 | 266 | 1.6 | 11.3 | 0.00 | 0.00 | 0.00 | 24 | 1024.4 |
| 20260830181059 | 22 | 36 | 1.6 | 11.3 | 0.00 | 0.00 | 0.00 | 23 | 1024.4 |
| 20260830180558 | 22 | 288 | 4.8 | 11.3 | 0.00 | 0.00 | 0.00 | 23 | 1024.4 |
| 20260830180109 | 22 | 217 | 1.6 | 6.4 | 0.00 | 0.00 | 0.00 | 22 | 1024.6 |
| 20260830175558 | 21 | 295 | 1.6 | 8.0 | 0.00 | 0.00 | 0.00 | 23 | 1024.5 |
| 20260830175058 | 22 | 56 | 1.6 | 8.0 | 0.00 | 0.00 | 0.00 | 23 | 1024.4 |
| 20260830174617 | 22 | 29 | 0.0 | 6.4 | 0.00 | 0.00 | 0.00 | 24 | 1024.6 |
| 20260830174101 | 21 | 0 | 1.6 | 6.4 | 0.00 | 0.00 | 0.00 | 23 | 1024.6 |
| 20260830173559 | 20 | 39 | 3.2 | 6.4 | 0.00 | 0.00 | 0.00 | 24 | 1024.7 |
| 20260830173107 | 20 | 56 | 0.0 | 6.4 | 0.00 | 0.00 | 0.00 | 23 | 1024.6 |
| 20260830172558 | 20 | 61 | 3.2 | 4.8 | 0.00 | 0.00 | 0.00 | 25 | 1024.6 |
| 20260830172058 | 20 | 88 | 0.0 | 6.4 | 0.00 | 0.00 | 0.00 | 25 | 1024.6 |
| 20260830171609 | 19 | 316 | 1.6 | 6.4 | 0.00 | 0.00 | 0.00 | 26 | 1024.7 |
| 20260830171102 | 19 | 44 | 0.0 | 4.8 | 0.00 | 0.00 | 0.00 | 29 | 1024.7 |
| 20260830170557 | 18 | 306 | 1.6 | 6.4 | 0.00 | 0.00 | 0.00 | 30 | 1024.6 |
| 20260830170108 | 18 | 0 | 3.2 | 6.4 | 0.00 | 0.00 | 0.00 | 30 | 1024.6 |
| 20260830165600 | 18 | 77 | 1.6 | 6.4 | 0.00 | 0.00 | 0.00 | 31 | 1024.5 |
| 20260830165058 | 18 | 52 | 0.0 | 4.8 | 0.00 | 0.00 | 0.00 | 36 | 1024.6 |
| 20260830164605 | 17 | 32 | 1.6 | 4.8 | 0.00 | 0.00 | 0.00 | 34 | 1024.6 |
| 20260830164058 | 17 | 0 | 0.0 | 3.2 | 0.00 | 0.00 | 0.00 | 39 | 1024.6 |
| 20260830163558 | 17 | 130 | 0.0 | 4.8 | 0.00 | 0.00 | 0.00 | 42 | 1024.6 |
| 20260830163108 | 16 | 113 | 0.0 | 4.8 | 0.00 | 0.00 | 0.00 | 45 | 1024.6 |
| 20260830162600 | 16 | 113 | 3.2 | 4.8 | 0.00 | 0.00 | 0.00 | 43 | 1024.7 |
| 20260830162100 | 16 | 95 | 1.6 | 3.2 | 0.00 | 0.00 | 0.00 | 43 | 1024.6 |
| 20260830161607 | 16 | 27 | 0.0 | 4.8 | 0.00 | 0.00 | 0.00 | 45 | 1024.6 |
| 20260830161102 | 15 | 319 | 0.0 | 6.4 | 0.00 | 0.00 | 0.00 | 49 | 1024.6 |
| 20260830160601 | 15 | 58 | 1.6 | 6.4 | 0.00 | 0.00 | 0.00 | 56 | 1024.6 |
| 20260830160115 | 15 | 46 | 1.6 | 4.8 | 0.00 | 0.00 | 0.00 | 55 | 1024.5 |
| 20260830155558 | 14 | 70 | 1.6 | 3.2 | 0.00 | 0.00 | 0.00 | 56 | 1024.5 |
| 20260830155058 | 13 | 108 | 0.0 | 3.2 | 0.00 | 0.00 | 0.00 | 57 | 1024.5 |
| 20260830154606 | 13 | 82 | 3.2 | 3.2 | 0.00 | 0.00 | 0.00 | 60 | 1024.5 |
| 20260830154102 | 12 | 94 | 0.0 | 4.8 | 0.00 | 0.00 | 0.00 | 67 | 1024.6 |
| 20260830153557 | 12 | 0 | 1.6 | 4.8 | 0.00 | 0.00 | 0.00 | 70 | 1024.7 |
| 20260830153108 | 12 | 61 | 3.2 | 4.8 | 0.00 | 0.00 | 0.00 | 71 | 1024.8 |
| 20260830152557 | 12 | 49 | 0.0 | 3.2 | 0.00 | 0.00 | 0.00 | 72 | 1024.9 |
| 20260830152058 | 11 | 0 | 0.0 | 1.6 | 0.00 | 0.00 | 0.00 | 73 | 1024.9 |
| 20260830151605 | 11 | 73 | 0.0 | 1.6 | 0.00 | 0.00 | 0.00 | 75 | 1024.9 |
| 20260830151058 | 11 | 58 | 0.0 | 1.6 | 0.00 | 0.00 | 0.00 | 76 | 1025.0 |
| 20260830150602 | 10 | 0 | 0.0 | 1.6 | 0.00 | 0.00 | 0.00 | 75 | 1024.9 |
| 20260830150121 | 10 | 0 | 0.0 | 1.6 | 0.00 | 0.00 | 0.00 | 76 | 1024.9 |
| 20260830145559 | 10 | 0 | 0.0 | 1.6 | 0.00 | 0.00 | 0.00 | 76 | 1025.0 |